map of NKW home
Great Circle Mapper logo
NKW - Airport
Location
City:  Diego Garcia, Chagos Archipelago, British Indian Ocean Territory
ICAO / IATA:FJDG / NKW

Details
Type:Airport (Aerodrome, Airfield)
Use:Military
Latitude:718'48"S (-7.313266)
Longitude:7224'40"E (72.411089)
Datum:WGS 1984
Elevation:9 ft (3 m)
Variation:6.84W (WMM2015 magnetic declination)
0.10 annual change
Runways:1
Longest:12003 × 200 ft (3659 × 61 m), paved

Time
Time Zone:UTC+6
Local Time:

Weather
METAR:FJDG 132255Z 30017G24KT 9999 FEW020 SCT050 BKN080 27/25 A2974 RMK SLP068 T02740254
TAF:FJDG 130908Z 1309/1415 34009KT 9999 SCT015 SCT050 BKN080 QNH2976INS TX30/1318Z TN27/1405Z

Related Locations
Nearby:
Farthest:ZIH: 11616 mi / 18693 km
Ixtapa/Zihuatanejo [Ixtapa-Zihuatanejo Intl], GRO, MX

Find:

   beyond  
but within

Other Information
Maps:
NOTAMs:
Links:
Sources:

  
flag of British Indian Ocean Territory   

Airport Diagram

Airport diagram for NKW

Airport diagram (OBSOLETE) from NGA

Sectional Chart

Flight Planning
at skyvector.com

Satellite Image

Google Maps Satellite view

 

Copyright © 2004-2016 Karl L. Swartz. All rights reserved.
The Great Circle Mapper name and logo are trademarks of the Great Circle Mapper.
All other trademarks mentioned herein belong to their respective owners.
Please see credits for attibutions and further copyright information.

  Follow gcmap on Facebook Follow gcmap on Twitter Follow gcmap on Google+ GCmap on LinkedIn

hCard Microformat

Geo Microformat